Wind_Speed
18 17 16 15 14 12 11 11 11 10 10 10 10 11 10 10 10 10 10 10 10 10 10 9 8 7 7 7 7 7 7 8 8 9 10 11 12 13 13 14 14 13
19 18 18 17 15 13 12 11 11 10 10 10 10 11 11 10 10 10 10 10 10 9 9 8 8 7 6 6 6 6 7 7 8 9 9 10 11 12 12 13 13 13
18 19 19 17 16 14 13 12 12 11 11 11 11 11 11 10 10 9 9 10 9 9 9 8 8 7 6 6 6 6 6 6 7 8 9 9 9 10 10 11 12 12
16 18 18 18 17 15 14 13 12 12 12 11 11 11 11 10 10 10 10 9 9 9 9 8 8 7 6 6 6 6 6 5 6 7 8 8 8 9 9 9 10 10
14 16 17 18 18 17 16 15 13 13 12 12 12 11 11 10 10 10 10 9 9 9 9 9 8 7 7 7 6 6 6 6 6 7 7 7 8 8 8 8 9 9
13 14 15 17 18 18 18 16 15 14 14 13 13 13 12 10 10 10 10 10 10 10 10 10 9 8 8 7 7 7 7 6 6 6 6 7 8 8 7 8 9 9
14 14 14 15 17 18 19 18 17 16 15 15 14 14 13 12 11 10 10 10 11 11 11 10 10 10 9 8 7 7 7 7 7 7 6 6 7 7 7 8 8 8
17 16 15 15 15 16 17 19 19 17 17 16 16 15 15 14 13 12 11 11 11 11 11 11 11 10 10 9 9 8 8 8 8 8 7 6 6 6 7 7 7 8
19 19 19 18 17 15 15 17 19 19 18 18 17 16 16 15 14 14 13 13 12 12 12 11 11 11 10 10 10 10 9 10 10 9 9 8 8 8 8 8 7 7
19 19 19 19 19 17 15 14 16 18 19 19 18 18 17 17 16 16 15 15 14 13 12 12 11 11 11 11 10 11 10 11 11 11 10 10 9 10 10 9 9 8
22 20 18 18 19 18 17 16 15 16 17 18 20 19 19 19 18 18 18 17 15 14 14 13 13 13 13 12 11 11 11 12 12 12 12 11 11 11 11 10 10 10
26 25 22 19 18 18 18 18 18 17 16 17 18 19 20 21 20 20 20 19 17 16 16 15 15 15 15 14 14 13 13 13 13 13 13 13 12 12 12 12 12 12
29 29 24 20 18 18 18 18 18 18 17 17 17 18 19 21 21 21 21 21 19 19 18 17 17 17 17 17 17 16 15 15 15 15 14 14 14 13 13 13 13 13
26 27 23 21 21 21 21 20 19 17 17 16 16 16 16 18 20 21 21 22 22 21 21 20 20 19 19 19 19 18 18 17 17 16 15 15 15 15 15 15 14 14
24 23 21 20 21 23 23 23 22 20 19 18 16 16 16 17 19 20 20 21 22 23 23 23 23 22 21 21 20 20 20 19 19 18 18 17 17 16 17 17 16 16
23 22 20 18 20 22 24 25 24 23 23 22 20 19 17 18 19 20 21 20 20 21 23 24 25 24 23 23 22 22 22 22 22 21 21 20 20 19 19 19 18 18
22 21 20 19 19 21 24 25 26 26 25 25 25 23 19 18 19 20 21 21 19 19 21 23 24 24 24 24 24 24 24 24 24 24 24 23 22 22 21 21 20 20
20 21 19 19 19 20 21 23 25 26 26 25 26 25 22 20 20 20 20 21 22 20 19 20 20 21 23 24 24 24 24 25 25 25 26 26 25 24 23 23 22 22
20 20 19 19 18 18 18 20 22 23 23 24 26 26 25 24 23 22 20 20 22 23 22 20 19 18 20 22 22 22 22 23 24 25 26 27 26 26 25 24 24 24
20 21 20 19 19 18 16 15 17 19 20 22 24 26 27 27 27 27 24 22 22 23 24 24 22 19 19 19 20 20 20 21 22 23 24 25 26 26 26 25 24 24
21 21 22 22 21 21 18 13 12 14 17 21 23 24 25 27 29 30 29 27 26 25 25 26 25 23 22 20 20 20 20 20 22 23 23 24 25 25 26 25 23 23
22 22 23 23 23 23 23 20 16 13 14 18 21 23 24 26 28 31 32 32 31 30 28 26 26 26 26 25 22 21 21 21 22 23 24 24 24 25 26 25 24 24
24 24 24 25 25 25 26 25 24 21 19 18 19 21 24 26 28 31 32 34 34 33 32 29 27 25 25 27 28 27 26 25 25 25 25 25 24 24 26 27 27 27
25 26 27 27 27 27 27 27 27 27 26 25 23 22 22 23 26 29 32 33 33 34 34 33 31 28 27 28 30 31 31 31 31 31 29 27 26 25 25 26 27 28
23 24 26 27 27 27 27 28 28 29 29 30 29 27 26 25 26 28 30 31 32 32 34 35 35 32 30 30 31 34 35 34 34 34 33 32 30 28 27 27 27 28
19 21 23 25 26 27 28 29 30 31 31 31 32 32 31 30 29 28 28 29 30 30 32 35 35 35 34 33 34 35 35 35 35 35 34 34 34 32 31 30 29 29
Wind_Direction
215 215 213 212 209 209 212 210 209 210 209 205 201 200 199 196 191 184 182 185 184 182 181 183 185 189 192 186 183 185 183 184 186 190 193 194 195 194 192 191 190 186
219 219 218 216 214 212 212 214 212 212 215 214 207 206 206 203 198 192 188 187 187 188 186 182 183 189 192 186 184 186 187 187 190 194 193 191 195 197 195 195 195 194
219 222 222 221 219 216 214 216 217 215 216 218 216 213 210 208 204 199 194 191 192 194 195 191 186 188 190 187 190 191 190 192 192 195 194 188 192 198 196 194 198 201
219 221 223 224 223 221 219 218 219 220 221 222 221 219 217 214 211 206 199 197 200 203 206 205 196 194 195 193 195 195 191 190 188 194 200 194 191 196 196 192 195 204
219 219 221 224 225 225 225 223 222 223 226 227 227 225 223 222 221 216 207 203 207 211 215 216 210 205 203 204 206 202 194 188 189 196 202 201 199 198 195 193 194 202
220 220 219 221 224 226 228 228 226 226 228 229 231 232 230 229 230 228 221 214 212 216 219 221 221 216 209 212 215 212 206 197 195 200 201 201 204 201 199 202 202 205
218 223 223 222 224 226 228 230 230 229 230 231 233 236 237 236 234 235 234 226 219 220 223 224 226 224 220 221 223 221 220 213 206 206 205 203 204 205 206 211 214 219
212 218 223 224 227 227 227 230 233 233 233 234 235 237 240 241 239 239 241 237 229 226 228 229 229 228 227 228 230 231 230 228 224 219 215 211 207 209 215 217 219 224
213 214 217 220 224 228 227 227 231 235 236 237 239 238 239 241 242 243 243 243 240 236 233 233 234 233 231 230 234 237 236 235 235 233 229 223 217 216 220 224 226 228
222 219 219 220 220 223 226 225 228 233 235 238 241 242 242 241 241 242 244 244 245 246 241 238 236 237 237 234 234 237 238 237 238 239 237 233 228 226 227 229 231 234
223 219 219 223 223 220 221 222 224 230 234 238 242 244 245 244 242 241 242 243 245 248 249 245 241 240 241 240 238 237 239 241 241 241 241 240 236 233 232 232 233 234
223 217 210 215 224 225 223 220 216 218 223 230 239 245 246 247 246 243 243 244 243 245 248 248 247 245 243 243 242 239 240 243 244 243 243 245 245 241 238 238 236 235
230 224 212 209 222 228 230 231 223 216 215 216 225 237 245 249 249 247 246 246 244 244 245 246 247 248 247 245 245 244 242 243 245 246 245 246 248 247 245 242 240 239
237 234 221 214 223 228 230 236 236 231 227 220 216 221 233 247 253 251 248 247 246 245 245 246 245 246 247 247 248 250 249 248 248 249 249 248 247 248 248 246 245 244
239 238 229 222 229 233 232 235 239 242 242 239 230 221 219 232 248 255 252 247 245 245 245 247 247 246 248 249 250 252 255 257 256 255 255 254 251 250 249 249 248 248
228 229 229 229 235 237 235 233 235 239 243 247 247 239 225 221 233 248 254 252 247 244 244 247 249 250 249 250 251 253 255 258 260 260 260 259 258 256 254 253 253 253
226 228 232 237 239 236 234 232 232 234 238 244 250 250 243 232 228 235 247 255 254 247 242 243 248 252 253 253 254 254 255 257 259 262 262 261 260 259 258 257 256 256
236 237 239 242 238 231 229 233 237 238 241 244 246 247 248 246 240 234 237 248 255 255 248 242 241 246 251 255 256 256 257 259 260 262 263 264 264 263 262 262 261 260
240 242 244 244 239 232 230 234 237 242 248 250 244 241 243 247 250 247 240 240 249 254 254 250 243 240 244 250 255 257 258 258 259 261 262 264 266 266 266 266 265 266
241 242 243 242 239 236 235 236 239 242 246 248 244 242 242 242 246 251 251 248 250 254 256 256 253 249 246 246 249 254 257 258 258 259 260 262 264 266 266 265 265 265
241 241 240 240 239 238 235 234 241 243 239 239 242 247 247 243 242 247 252 255 258 260 260 260 260 260 258 253 248 248 252 255 257 258 258 260 262 264 266 267 266 264
245 244 243 241 240 241 238 232 229 233 235 235 240 246 249 248 245 244 246 250 256 260 261 259 258 261 265 269 266 261 258 256 255 256 258 259 261 263 266 268 268 267
250 250 248 245 242 240 240 235 228 227 229 231 235 239 243 248 248 245 242 244 248 252 255 255 254 253 260 268 271 273 273 269 265 261 260 259 259 261 265 267 270 271
250 249 248 248 245 242 242 240 236 234 233 233 235 236 239 244 247 247 244 243 246 248 249 252 254 251 251 254 259 264 267 270 271 271 268 266 264 263 264 266 268 271
247 246 246 246 246 245 245 244 242 242 242 241 240 239 241 243 246 248 247 245 246 246 247 250 253 253 250 249 251 253 255 257 261 264 264 266 267 267 267 268 267 268
243 244 245 245 244 244 244 243 243 243 245 245 244 244 245 247 249 253 252 248 246 247 248 250 253 254 252 250 250 253 255 256 257 259 262 263 264 265 266 266 266 265
Height
3236 3237 3238 3239 3240 3242 3243 3245 3245 3246 3247 3247 3248 3248 3249 3250 3250 3251 3252 3252 3253 3254 3254 3255 3255 3256 3256 3256 3256 3256 3256 3256 3256 3257 3257 3257 3258 3258 3258 3258 3259 3259
3235 3237 3238 3239 3240 3242 3243 3244 3245 3246 3247 3248 3248 3248 3249 3250 3251 3251 3252 3253 3253 3254 3255 3255 3256 3256 3256 3257 3257 3257 3257 3257 3257 3257 3257 3257 3258 3258 3258 3259 3259 3260
3234 3236 3237 3239 3240 3241 3242 3244 3245 3246 3247 3248 3248 3249 3249 3250 3251 3252 3252 3253 3253 3254 3255 3255 3256 3256 3256 3257 3257 3257 3257 3257 3257 3257 3257 3257 3258 3258 3258 3259 3259 3260
3233 3235 3236 3238 3240 3241 3242 3243 3244 3245 3246 3247 3248 3249 3249 3250 3251 3252 3252 3253 3253 3254 3255 3255 3256 3256 3256 3256 3256 3257 3257 3257 3257 3257 3257 3257 3258 3258 3258 3259 3259 3260
3231 3233 3235 3237 3239 3240 3241 3242 3243 3245 3246 3247 3248 3248 3249 3250 3250 3251 3252 3253 3253 3254 3254 3255 3255 3256 3256 3256 3256 3257 3257 3257 3257 3257 3257 3258 3258 3258 3258 3259 3259 3259
3229 3231 3233 3235 3237 3238 3240 3241 3242 3244 3245 3246 3247 3248 3249 3250 3250 3251 3252 3253 3253 3254 3254 3255 3255 3256 3256 3257 3257 3257 3257 3257 3257 3257 3257 3257 3258 3258 3258 3258 3258 3259
3227 3229 3231 3233 3235 3236 3238 3240 3241 3242 3243 3244 3246 3247 3248 3249 3250 3251 3251 3252 3253 3253 3254 3254 3255 3255 3256 3256 3257 3257 3257 3257 3257 3257 3257 3257 3257 3258 3258 3258 3258 3258
3224 3226 3229 3231 3232 3234 3236 3238 3239 3240 3242 3243 3244 3245 3246 3247 3249 3250 3251 3251 3252 3252 3253 3254 3254 3255 3255 3255 3256 3256 3257 3257 3257 3257 3257 3257 3257 3257 3257 3258 3258 3258
3222 3223 3225 3228 3230 3232 3234 3235 3237 3238 3240 3241 3242 3243 3244 3246 3247 3248 3249 3250 3251 3252 3252 3253 3253 3254 3254 3255 3255 3255 3256 3256 3256 3256 3257 3257 3257 3257 3257 3257 3257 3257
3221 3222 3223 3225 3227 3229 3231 3233 3235 3236 3237 3239 3240 3241 3242 3243 3245 3246 3247 3248 3250 3251 3251 3252 3253 3253 3253 3254 3254 3254 3255 3255 3255 3255 3256 3256 3256 3256 3256 3257 3257 3257
3219 3220 3221 3223 3225 3226 3227 3229 3231 3233 3234 3236 3237 3238 3240 3241 3242 3244 3245 3246 3248 3249 3250 3251 3251 3252 3252 3252 3253 3253 3254 3254 3254 3255 3255 3255 3255 3256 3256 3256 3256 3256
3216 3216 3216 3219 3222 3223 3224 3225 3226 3228 3230 3232 3234 3235 3237 3238 3240 3241 3242 3244 3245 3247 3248 3249 3250 3250 3251 3251 3251 3252 3252 3252 3253 3253 3254 3254 3254 3254 3255 3255 3255 3255
3215 3215 3214 3216 3220 3222 3222 3223 3224 3225 3226 3227 3229 3232 3234 3235 3237 3238 3240 3242 3243 3244 3245 3247 3248 3248 3249 3249 3250 3250 3250 3251 3251 3252 3252 3253 3253 3253 3253 3254 3254 3254
3212 3215 3214 3213 3216 3219 3220 3222 3223 3224 3225 3225 3226 3228 3230 3232 3234 3235 3237 3239 3241 3242 3243 3244 3245 3246 3247 3247 3248 3248 3248 3249 3249 3250 3250 3251 3251 3251 3252 3252 3252 3252
3210 3213 3213 3212 3214 3216 3218 3220 3222 3224 3225 3225 3225 3226 3227 3229 3231 3232 3234 3236 3238 3240 3241 3242 3242 3243 3244 3245 3246 3247 3247 3247 3248 3248 3248 3249 3249 3249 3250 3250 3250 3251
3208 3210 3210 3211 3212 3214 3216 3218 3220 3222 3224 3225 3225 3226 3226 3227 3228 3230 3231 3233 3235 3237 3238 3239 3240 3241 3242 3243 3244 3245 3245 3245 3246 3246 3247 3247 3247 3247 3248 3248 3248 3249
3205 3206 3206 3208 3209 3211 3213 3215 3217 3219 3221 3223 3224 3225 3225 3225 3226 3227 3229 3230 3232 3234 3235 3237 3237 3239 3240 3241 3242 3243 3243 3243 3243 3244 3244 3245 3245 3245 3246 3246 3247 3247
3201 3203 3204 3205 3207 3208 3210 3212 3214 3217 3218 3220 3221 3223 3223 3224 3225 3225 3226 3227 3228 3230 3232 3234 3235 3236 3237 3238 3239 3240 3241 3241 3241 3241 3241 3242 3242 3243 3243 3244 3244 3245
3199 3200 3202 3203 3205 3207 3209 3210 3212 3214 3215 3217 3218 3219 3220 3221 3222 3223 3224 3225 3226 3227 3228 3230 3232 3233 3234 3235 3236 3238 3239 3239 3239 3239 3239 3239 3240 3240 3241 3241 3242 3242
3197 3198 3200 3201 3203 3205 3207 3209 3210 3211 3212 3213 3215 3216 3217 3218 3219 3220 3222 3223 3224 3225 3226 3226 3228 3230 3231 3233 3234 3235 3236 3236 3236 3237 3237 3237 3237 3237 3238 3239 3239 3240
3195 3196 3198 3199 3201 3203 3205 3207 3208 3209 3209 3211 3212 3214 3214 3215 3216 3218 3219 3221 3222 3223 3224 3225 3225 3226 3227 3229 3231 3232 3233 3233 3234 3234 3234 3235 3235 3235 3236 3236 3237 3237
3193 3194 3195 3197 3198 3200 3201 3203 3206 3207 3208 3209 3210 3210 3211 3212 3213 3215 3216 3218 3219 3221 3222 3223 3224 3225 3225 3226 3227 3228 3229 3230 3230 3231 3232 3232 3233 3234 3234 3234 3235 3235
3190 3191 3192 3194 3195 3197 3198 3200 3202 3203 3204 3205 3206 3207 3208 3209 3210 3211 3212 3214 3216 3217 3218 3219 3221 3223 3224 3224 3224 3225 3226 3226 3227 3227 3228 3229 3230 3231 3232 3232 3233 3233
3187 3188 3189 3190 3192 3194 3195 3197 3198 3200 3201 3201 3202 3203 3204 3205 3206 3207 3208 3210 3212 3213 3214 3215 3217 3220 3220 3220 3220 3221 3221 3222 3223 3223 3224 3225 3227 3228 3229 3230 3230 3230
3183 3184 3185 3186 3188 3190 3192 3194 3195 3196 3197 3198 3199 3200 3200 3201 3202 3204 3205 3207 3209 3210 3211 3212 3213 3215 3216 3216 3215 3214 3215 3216 3217 3218 3219 3221 3223 3224 3224 3225 3226 3226
3181 3181 3182 3183 3185 3186 3188 3189 3191 3192 3193 3194 3195 3197 3198 3199 3199 3201 3202 3204 3205 3206 3207 3208 3209 3211 3211 3210 3209 3209 3210 3212 3213 3215 3217 3218 3219 3219 3219 3220 3221 3221